Time,TemperatureF,DewpointF,PressureIn,WindDirection,WindDirectionDegrees,WindSpeedMPH,WindSpeedGustMPH,Humidity,HourlyPrecipIn,Conditions,Clouds,dailyrainin,SoftwareType,DateUTC
2013-03-07 00:00:00,46.9,36.5,30.11,NNW,341,4.0,9.0,67,0.00,,,0.12,VWS V14.01,2013-03-07 05:00:00,
2013-03-07 00:05:00,46.4,36.4,30.11,North,350,6.0,8.0,68,0.00,,,0.00,VWS V14.01,2013-03-07 05:05:00,
2013-03-07 00:10:00,45.9,36.3,30.11,NNW,340,4.0,8.0,69,0.00,,,0.00,VWS V14.01,2013-03-07 05:10:00,
2013-03-07 00:15:00,45.7,36.1,30.11,North,355,5.0,9.0,69,0.00,,,0.00,VWS V14.01,2013-03-07 05:15:00,
2013-03-07 00:20:00,45.6,36.0,30.11,North,5,5.0,9.0,69,0.00,,,0.00,VWS V14.01,2013-03-07 05:20:00,
2013-03-07 00:25:00,45.5,35.9,30.11,North,355,4.0,6.0,69,0.00,,,0.00,VWS V14.01,2013-03-07 05:25:00,
2013-03-07 00:30:00,45.4,35.8,30.11,NNW,343,5.0,7.0,69,0.00,,,0.00,VWS V14.01,2013-03-07 05:30:00,
2013-03-07 00:35:00,45.2,35.7,30.11,North,5,2.0,5.0,69,0.00,,,0.00,VWS V14.01,2013-03-07 05:35:00,
2013-03-07 00:40:00,45.0,35.5,30.12,NNW,348,3.0,6.0,69,0.00,,,0.00,VWS V14.01,2013-03-07 05:40:00,
2013-03-07 00:45:00,44.8,35.3,30.11,NNW,348,2.0,3.0,69,0.00,,,0.00,VWS V14.01,2013-03-07 05:45:00,
2013-03-07 00:50:00,44.6,35.1,30.12,North,360,3.0,6.0,69,0.00,,,0.00,VWS V14.01,2013-03-07 05:50:00,
2013-03-07 00:55:00,44.5,35.0,30.11,North,360,3.0,4.0,69,0.00,,,0.00,VWS V14.01,2013-03-07 05:55:00,
2013-03-07 01:00:00,44.2,35.0,30.11,North,360,3.0,4.0,70,0.00,,,0.00,VWS V14.01,2013-03-07 06:00:00,
2013-03-07 01:05:00,43.9,34.8,30.11,North,360,2.0,3.0,70,0.00,,,0.00,VWS V14.01,2013-03-07 06:05:00,
2013-03-07 01:10:00,43.6,34.8,30.11,North,360,3.0,5.0,71,0.00,,,0.00,VWS V14.01,2013-03-07 06:10:00,
2013-03-07 01:15:00,43.3,34.5,30.11,North,360,2.0,2.0,71,0.00,,,0.00,VWS V14.01,2013-03-07 06:15:00,
2013-03-07 01:20:00,43.1,34.7,30.11,North,360,2.0,3.0,72,0.00,,,0.00,VWS V14.01,2013-03-07 06:20:00,
2013-03-07 01:25:00,43.0,34.6,30.11,North,360,1.0,2.0,72,0.00,,,0.00,VWS V14.01,2013-03-07 06:25:00,
2013-03-07 01:30:00,43.0,34.6,30.11,North,360,4.0,4.0,72,0.00,,,0.00,VWS V14.01,2013-03-07 06:30:00,
2013-03-07 01:35:00,42.9,34.8,30.11,North,360,1.0,2.0,73,0.00,,,0.00,VWS V14.01,2013-03-07 06:35:00,
2013-03-07 01:40:00,42.7,34.3,30.11,North,360,0.0,3.0,72,0.00,,,0.00,VWS V14.01,2013-03-07 06:40:00,
2013-03-07 01:45:00,42.5,34.5,30.11,North,360,3.0,3.0,73,0.00,,,0.00,VWS V14.01,2013-03-07 06:45:00,
2013-03-07 01:50:00,42.3,34.6,30.11,North,360,2.0,4.0,74,0.00,,,0.00,VWS V14.01,2013-03-07 06:50:00,
2013-03-07 01:55:00,42.3,34.6,30.11,NNW,338,4.0,4.0,74,0.00,,,0.00,VWS V14.01,2013-03-07 06:55:00,
2013-03-07 02:00:00,42.3,35.0,30.11,NNW,335,2.0,5.0,75,0.00,,,0.00,VWS V14.01,2013-03-07 07:00:00,
2013-03-07 02:05:00,42.5,34.8,30.11,NNW,335,4.0,5.0,74,0.00,,,0.00,VWS V14.01,2013-03-07 07:05:00,
2013-03-07 02:10:00,42.5,35.2,30.11,NNW,342,3.0,6.0,75,0.00,,,0.00,VWS V14.01,2013-03-07 07:10:00,
2013-03-07 02:15:00,42.4,35.0,30.11,NNW,342,2.0,4.0,75,0.00,,,0.00,VWS V14.01,2013-03-07 07:15:00,
2013-03-07 02:20:00,42.3,35.3,30.11,NNW,342,1.0,4.0,76,0.00,,,0.00,VWS V14.01,2013-03-07 07:20:00,
2013-03-07 02:25:00,42.0,35.7,30.11,NNW,342,4.0,4.0,78,0.00,,,0.00,VWS V14.01,2013-03-07 07:25:00,
2013-03-07 02:30:00,41.6,35.3,30.11,NW,315,3.0,5.0,78,0.00,,,0.00,VWS V14.01,2013-03-07 07:30:00,
2013-03-07 02:35:00,41.6,35.3,30.11,NW,315,2.0,3.0,78,0.00,,,0.00,VWS V14.01,2013-03-07 07:35:00,
2013-03-07 02:40:00,41.7,35.4,30.11,NW,315,2.0,4.0,78,0.00,,,0.00,VWS V14.01,2013-03-07 07:40:00,
2013-03-07 02:45:00,41.8,35.1,30.11,NW,324,4.0,4.0,77,0.00,,,0.00,VWS V14.01,2013-03-07 07:45:00,
2013-03-07 02:50:00,41.8,35.1,30.11,NW,323,3.0,7.0,77,0.00,,,0.00,VWS V14.01,2013-03-07 07:50:00,
2013-03-07 02:55:00,41.8,35.1,30.11,NNW,334,4.0,5.0,77,0.00,,,0.00,VWS V14.01,2013-03-07 07:55:00,
2013-03-07 03:00:00,41.9,35.2,30.10,NW,322,6.0,6.0,77,0.00,,,0.00,VWS V14.01,2013-03-07 08:00:00,
2013-03-07 03:05:00,42.0,35.0,30.10,NW,326,3.0,5.0,76,0.00,,,0.00,VWS V14.01,2013-03-07 08:05:00,
2013-03-07 03:10:00,42.0,35.0,30.10,NNW,336,6.0,6.0,76,0.00,,,0.00,VWS V14.01,2013-03-07 08:10:00,
2013-03-07 03:15:00,42.0,34.7,30.10,NNW,337,3.0,7.0,75,0.00,,,0.00,VWS V14.01,2013-03-07 08:15:00,
2013-03-07 03:20:00,42.1,34.4,30.10,NNW,331,4.0,8.0,74,0.00,,,0.00,VWS V14.01,2013-03-07 08:20:00,
2013-03-07 03:25:00,42.0,34.0,30.10,NW,324,4.0,5.0,73,0.00,,,0.00,VWS V14.01,2013-03-07 08:25:00,
2013-03-07 03:30:00,42.0,34.3,30.10,NNW,327,5.0,7.0,74,0.00,,,0.00,VWS V14.01,2013-03-07 08:30:00,
2013-03-07 03:35:00,41.8,34.5,30.09,NW,323,5.0,9.0,75,0.00,,,0.00,VWS V14.01,2013-03-07 08:35:00,
2013-03-07 03:40:00,41.7,34.4,30.10,NNE,15,7.0,9.0,75,0.00,,,0.00,VWS V14.01,2013-03-07 08:40:00,
2013-03-07 03:45:00,41.7,34.0,30.09,NNW,346,5.0,9.0,74,0.00,,,0.00,VWS V14.01,2013-03-07 08:45:00,
2013-03-07 03:50:00,41.7,33.7,30.09,NNW,337,4.0,9.0,73,0.00,,,0.00,VWS V14.01,2013-03-07 08:50:00,
2013-03-07 03:55:00,41.6,33.6,30.10,NNW,342,7.0,10.0,73,0.00,,,0.00,VWS V14.01,2013-03-07 08:55:00,
2013-03-07 04:00:00,41.5,33.5,30.10,NNW,348,6.0,10.0,73,0.00,,,0.00,VWS V14.01,2013-03-07 09:00:00,
2013-03-07 04:05:00,41.6,33.6,30.10,NNW,329,5.0,11.0,73,0.00,,,0.00,VWS V14.01,2013-03-07 09:05:00,
2013-03-07 04:10:00,41.6,33.3,30.10,NNW,342,4.0,11.0,72,0.00,,,0.00,VWS V14.01,2013-03-07 09:10:00,
2013-03-07 04:16:00,41.6,33.3,30.10,NNW,348,6.0,7.0,72,0.00,,,0.00,VWS V14.01,2013-03-07 09:16:00,
2013-03-07 04:21:00,41.8,33.5,30.11,NW,325,6.0,12.0,72,0.00,,,0.00,VWS V14.01,2013-03-07 09:21:00,
2013-03-07 04:26:00,41.8,33.1,30.11,NNW,336,10.0,12.0,71,0.00,,,0.00,VWS V14.01,2013-03-07 09:26:00,
2013-03-07 04:30:00,41.9,33.2,30.11,North,355,8.0,13.0,71,0.00,,,0.00,VWS V14.01,2013-03-07 09:30:00,
2013-03-07 04:35:00,41.9,33.2,30.11,North,355,6.0,9.0,71,0.00,,,0.00,VWS V14.01,2013-03-07 09:35:00,
2013-03-07 04:40:00,41.7,33.0,30.11,NNW,346,5.0,10.0,71,0.00,,,0.00,VWS V14.01,2013-03-07 09:40:00,
2013-03-07 04:45:00,41.5,33.2,30.11,NNW,348,4.0,7.0,72,0.00,,,0.00,VWS V14.01,2013-03-07 09:45:00,
2013-03-07 04:50:00,41.4,33.1,30.11,North,355,4.0,11.0,72,0.00,,,0.00,VWS V14.01,2013-03-07 09:50:00,
2013-03-07 04:55:00,41.3,33.3,30.11,North,355,5.0,8.0,73,0.00,,,0.00,VWS V14.01,2013-03-07 09:55:00,
2013-03-07 05:00:00,41.0,33.0,30.12,NNW,348,7.0,8.0,73,0.00,,,0.00,VWS V14.01,2013-03-07 10:00:00,
2013-03-07 05:06:00,41.0,33.0,30.12,NNE,17,5.0,7.0,73,0.00,,,0.00,VWS V14.01,2013-03-07 10:06:00,
2013-03-07 05:11:00,40.9,32.6,30.12,North,5,4.0,8.0,72,0.00,,,0.00,VWS V14.01,2013-03-07 10:11:00,
2013-03-07 05:16:00,40.7,32.4,30.12,North,5,4.0,6.0,72,0.00,,,0.00,VWS V14.01,2013-03-07 10:16:00,
2013-03-07 05:21:00,40.7,32.4,30.12,NNW,346,4.0,7.0,72,0.00,,,0.00,VWS V14.01,2013-03-07 10:21:00,
2013-03-07 05:26:00,40.6,32.6,30.12,North,355,4.0,5.0,73,0.00,,,0.00,VWS V14.01,2013-03-07 10:26:00,
2013-03-07 05:31:00,40.4,32.4,30.13,North,355,4.0,5.0,73,0.00,,,0.00,VWS V14.01,2013-03-07 10:31:00,
2013-03-07 05:36:00,40.1,32.5,30.13,NNW,327,5.0,6.0,74,0.00,,,0.00,VWS V14.01,2013-03-07 10:36:00,
2013-03-07 05:41:00,40.0,32.4,30.13,North,355,3.0,7.0,74,0.00,,,0.00,VWS V14.01,2013-03-07 10:41:00,
2013-03-07 05:46:00,39.8,32.2,30.13,North,355,3.0,6.0,74,0.00,,,0.00,VWS V14.01,2013-03-07 10:46:00,
2013-03-07 05:51:00,39.7,32.4,30.13,North,350,3.0,7.0,75,0.00,,,0.00,VWS V14.01,2013-03-07 10:51:00,
2013-03-07 05:56:00,39.6,32.3,30.13,NNW,346,5.0,6.0,75,0.00,,,0.00,VWS V14.01,2013-03-07 10:56:00,
2013-03-07 06:01:00,39.5,32.2,30.14,NNW,333,3.0,7.0,75,0.00,,,0.00,VWS V14.01,2013-03-07 11:01:00,
2013-03-07 06:06:00,39.3,32.0,30.14,NNW,333,3.0,3.0,75,0.00,,,0.00,VWS V14.01,2013-03-07 11:06:00,
2013-03-07 06:11:00,39.1,32.2,30.14,NNW,333,3.0,3.0,76,0.00,,,0.00,VWS V14.01,2013-03-07 11:11:00,
2013-03-07 06:16:00,38.9,32.0,30.14,NNW,333,3.0,3.0,76,0.00,,,0.00,VWS V14.01,2013-03-07 11:16:00,
2013-03-07 06:21:00,38.7,31.8,30.14,NNW,333,3.0,3.0,76,0.00,,,0.00,VWS V14.01,2013-03-07 11:21:00,
2013-03-07 06:26:00,38.5,31.9,30.14,NNW,333,3.0,3.0,77,0.00,,,0.00,VWS V14.01,2013-03-07 11:26:00,
2013-03-07 06:31:00,38.3,31.7,30.14,NNW,333,3.0,3.0,77,0.00,,,0.00,VWS V14.01,2013-03-07 11:31:00,
2013-03-07 06:36:00,38.2,32.0,30.15,NNW,333,3.0,3.0,78,0.00,,,0.00,VWS V14.01,2013-03-07 11:36:00,
2013-03-07 06:41:00,38.0,31.8,30.15,NNW,333,3.0,3.0,78,0.00,,,0.00,VWS V14.01,2013-03-07 11:41:00,
2013-03-07 06:46:00,38.0,31.8,30.15,NNW,333,3.0,3.0,78,0.00,,,0.00,VWS V14.01,2013-03-07 11:46:00,
2013-03-07 06:51:00,37.8,31.6,30.15,NNW,333,3.0,3.0,78,0.00,,,0.00,VWS V14.01,2013-03-07 11:51:00,
2013-03-07 06:56:00,37.9,32.0,30.15,NNW,333,3.0,3.0,79,0.00,,,0.00,VWS V14.01,2013-03-07 11:56:00,
2013-03-07 07:01:00,37.9,32.0,30.16,NNW,333,3.0,3.0,79,0.00,,,0.00,VWS V14.01,2013-03-07 12:01:00,
2013-03-07 07:06:00,37.8,31.9,30.16,NNW,333,3.0,3.0,79,0.00,,,0.00,VWS V14.01,2013-03-07 12:06:00,
2013-03-07 07:11:00,37.7,31.8,30.16,NNW,333,3.0,3.0,79,0.00,,,0.00,VWS V14.01,2013-03-07 12:11:00,
2013-03-07 07:16:00,37.8,32.2,30.16,NNW,333,3.0,3.0,80,0.00,,,0.00,VWS V14.01,2013-03-07 12:16:00,
2013-03-07 07:21:00,37.9,32.3,30.16,NNW,333,3.0,3.0,80,0.00,,,0.00,VWS V14.01,2013-03-07 12:21:00,
2013-03-07 07:26:00,38.4,32.5,30.17,NNW,333,3.0,3.0,79,0.00,,,0.00,VWS V14.01,2013-03-07 12:26:00,
2013-03-07 07:31:00,39.1,32.8,30.17,NNW,333,3.0,3.0,78,0.00,,,0.00,VWS V14.01,2013-03-07 12:31:00,
2013-03-07 07:36:00,39.9,33.3,30.17,NNW,333,3.0,3.0,77,0.00,,,0.00,VWS V14.01,2013-03-07 12:36:00,
2013-03-07 07:41:00,40.8,33.5,30.17,NNW,333,3.0,3.0,75,0.00,,,0.00,VWS V14.01,2013-03-07 12:41:00,
2013-03-07 07:46:00,41.4,33.4,30.17,NNW,333,3.0,3.0,73,0.00,,,0.00,VWS V14.01,2013-03-07 12:46:00,
2013-03-07 07:51:00,41.8,33.5,30.18,NNW,333,3.0,3.0,72,0.00,,,0.00,VWS V14.01,2013-03-07 12:51:00,
2013-03-07 07:56:00,42.4,33.7,30.18,NNW,333,3.0,3.0,71,0.00,,,0.00,VWS V14.01,2013-03-07 12:56:00,
2013-03-07 08:01:00,43.1,34.0,30.18,NNW,333,3.0,3.0,70,0.00,,,0.00,VWS V14.01,2013-03-07 13:01:00,
2013-03-07 08:06:00,43.9,34.0,30.18,NNW,333,3.0,3.0,68,0.00,,,0.00,VWS V14.01,2013-03-07 13:06:00,
2013-03-07 08:11:00,44.6,34.3,30.18,NNW,333,3.0,3.0,67,0.00,,,0.00,VWS V14.01,2013-03-07 13:11:00,
2013-03-07 08:16:00,45.3,34.2,30.18,NNW,333,3.0,3.0,65,0.00,,,0.00,VWS V14.01,2013-03-07 13:16:00,
2013-03-07 08:21:00,45.4,33.6,30.18,NNW,333,3.0,3.0,63,0.00,,,0.00,VWS V14.01,2013-03-07 13:21:00,
2013-03-07 08:26:00,45.6,33.3,30.18,NNW,333,3.0,3.0,62,0.00,,,0.00,VWS V14.01,2013-03-07 13:26:00,
2013-03-07 08:31:00,45.8,33.5,30.18,NNW,333,3.0,3.0,62,0.00,,,0.00,VWS V14.01,2013-03-07 13:31:00,
2013-03-07 08:36:00,46.0,33.3,30.18,NNW,333,3.0,3.0,61,0.00,,,0.00,VWS V14.01,2013-03-07 13:36:00,
2013-03-07 08:41:00,46.1,33.0,30.18,NNW,333,3.0,3.0,60,0.00,,,0.00,VWS V14.01,2013-03-07 13:41:00,
2013-03-07 08:46:00,46.5,33.8,30.18,NNW,333,3.0,3.0,61,0.00,,,0.00,VWS V14.01,2013-03-07 13:46:00,
2013-03-07 08:51:00,46.6,33.9,30.18,NNW,333,3.0,3.0,61,0.00,,,0.00,VWS V14.01,2013-03-07 13:51:00,
2013-03-07 08:56:00,47.1,33.9,30.18,NNW,333,3.0,3.0,60,0.00,,,0.00,VWS V14.01,2013-03-07 13:56:00,
2013-03-07 09:01:00,47.6,34.0,30.18,NNW,333,3.0,3.0,59,0.00,,,0.00,VWS V14.01,2013-03-07 14:01:00,
2013-03-07 09:06:00,48.3,34.2,30.18,NNW,333,3.0,3.0,58,0.00,,,0.00,VWS V14.01,2013-03-07 14:06:00,
2013-03-07 09:11:00,49.0,34.5,30.18,NNW,333,3.0,3.0,57,0.00,,,0.00,VWS V14.01,2013-03-07 14:11:00,
2013-03-07 09:16:00,49.7,34.7,30.18,NNW,333,3.0,3.0,56,0.00,,,0.00,VWS V14.01,2013-03-07 14:16:00,
2013-03-07 09:21:00,49.6,34.6,30.19,NNW,333,3.0,3.0,56,0.00,,,0.00,VWS V14.01,2013-03-07 14:21:00,
2013-03-07 09:26:00,50.1,34.1,30.19,NNW,333,3.0,3.0,54,0.00,,,0.00,VWS V14.01,2013-03-07 14:26:00,
2013-03-07 09:31:00,50.6,35.5,30.19,NNW,333,3.0,3.0,56,0.00,,,0.00,VWS V14.01,2013-03-07 14:31:00,
2013-03-07 09:36:00,51.1,36.4,30.18,NNW,333,3.0,3.0,57,0.00,,,0.00,VWS V14.01,2013-03-07 14:36:00,
2013-03-07 09:41:00,51.7,35.6,30.19,NNW,333,3.0,3.0,54,0.00,,,0.00,VWS V14.01,2013-03-07 14:41:00,
2013-03-07 09:46:00,51.1,36.0,30.19,NNW,333,3.0,3.0,56,0.00,,,0.00,VWS V14.01,2013-03-07 14:46:00,
2013-03-07 09:51:00,51.5,35.9,30.19,NNW,333,3.0,3.0,55,0.00,,,0.00,VWS V14.01,2013-03-07 14:51:00,
2013-03-07 09:56:00,51.6,35.5,30.19,NNW,333,3.0,3.0,54,0.00,,,0.00,VWS V14.01,2013-03-07 14:56:00,
2013-03-07 10:01:00,52.8,36.6,30.19,NNW,333,3.0,3.0,54,0.00,,,0.00,VWS V14.01,2013-03-07 15:01:00,
2013-03-07 10:06:00,53.2,36.5,30.20,NNW,333,3.0,3.0,53,0.00,,,0.00,VWS V14.01,2013-03-07 15:06:00,
2013-03-07 10:11:00,52.3,37.1,30.20,NNW,333,3.0,3.0,56,0.00,,,0.00,VWS V14.01,2013-03-07 15:11:00,
2013-03-07 10:16:00,53.6,36.4,30.20,NNW,333,3.0,3.0,52,0.00,,,0.00,VWS V14.01,2013-03-07 15:16:00,
2013-03-07 10:21:00,54.1,37.4,30.20,NNW,333,3.0,3.0,53,0.00,,,0.00,VWS V14.01,2013-03-07 15:21:00,
2013-03-07 10:26:00,53.6,37.4,30.20,NE,36,4.0,8.0,54,0.00,,,0.00,VWS V14.01,2013-03-07 15:26:00,
2013-03-07 10:31:00,54.2,37.0,30.20,ENE,58,6.0,11.0,52,0.00,,,0.00,VWS V14.01,2013-03-07 15:31:00,
2013-03-07 10:36:00,54.6,37.3,30.20,North,5,8.0,9.0,52,0.00,,,0.00,VWS V14.01,2013-03-07 15:36:00,
2013-03-07 10:41:00,55.5,37.7,30.20,NNW,342,5.0,10.0,51,0.00,,,0.00,VWS V14.01,2013-03-07 15:41:00,
2013-03-07 10:46:00,54.5,37.2,30.20,NE,40,4.0,11.0,52,0.00,,,0.00,VWS V14.01,2013-03-07 15:46:00,
2013-03-07 10:51:00,55.5,38.2,30.20,NNW,329,11.0,12.0,52,0.00,,,0.00,VWS V14.01,2013-03-07 15:51:00,
2013-03-07 10:56:00,55.4,38.1,30.20,North,355,9.0,13.0,52,0.00,,,0.00,VWS V14.01,2013-03-07 15:56:00,
2013-03-07 11:01:00,55.6,37.8,30.20,NNW,340,12.0,13.0,51,0.00,,,0.00,VWS V14.01,2013-03-07 16:01:00,
2013-03-07 11:06:00,56.2,37.8,30.20,North,351,4.0,8.0,50,0.00,,,0.00,VWS V14.01,2013-03-07 16:06:00,
2013-03-07 11:11:00,55.8,37.5,30.19,NNE,17,6.0,8.0,50,0.00,,,0.00,VWS V14.01,2013-03-07 16:11:00,
2013-03-07 11:16:00,56.7,38.3,30.20,North,5,6.0,9.0,50,0.00,,,0.00,VWS V14.01,2013-03-07 16:16:00,
2013-03-07 11:21:00,57.3,37.8,30.20,North,355,6.0,11.0,48,0.00,,,0.00,VWS V14.01,2013-03-07 16:21:00,
2013-03-07 11:26:00,57.1,37.6,30.20,NNW,347,4.0,9.0,48,0.00,,,0.00,VWS V14.01,2013-03-07 16:26:00,
2013-03-07 11:31:00,57.9,38.3,30.19,North,5,8.0,11.0,48,0.00,,,0.00,VWS V14.01,2013-03-07 16:31:00,
2013-03-07 11:36:00,58.0,39.0,30.19,NW,311,9.0,10.0,49,0.00,,,0.00,VWS V14.01,2013-03-07 16:36:00,
2013-03-07 11:41:00,58.6,39.0,30.19,NW,314,7.0,11.0,48,0.00,,,0.00,VWS V14.01,2013-03-07 16:41:00,
2013-03-07 11:46:00,58.9,38.2,30.19,NNW,337,8.0,8.0,46,0.00,,,0.00,VWS V14.01,2013-03-07 16:46:00,
2013-03-07 11:51:00,58.3,38.7,30.19,NW,322,6.0,12.0,48,0.00,,,0.00,VWS V14.01,2013-03-07 16:51:00,
2013-03-07 11:56:00,59.4,38.6,30.18,North,355,8.0,10.0,46,0.00,,,0.00,VWS V14.01,2013-03-07 16:56:00,
2013-03-07 12:01:00,60.2,39.9,30.18,North,360,8.0,11.0,47,0.00,,,0.00,VWS V14.01,2013-03-07 17:01:00,
2013-03-07 12:06:00,60.3,38.9,30.18,NNE,12,7.0,10.0,45,0.00,,,0.00,VWS V14.01,2013-03-07 17:06:00,
2013-03-07 12:11:00,60.5,37.3,30.18,NNE,19,5.0,10.0,42,0.00,,,0.00,VWS V14.01,2013-03-07 17:11:00,
2013-03-07 12:16:00,60.9,38.3,30.17,NE,37,1.0,8.0,43,0.00,,,0.00,VWS V14.01,2013-03-07 17:16:00,
2013-03-07 12:21:00,60.7,38.1,30.17,NNE,25,5.0,8.0,43,0.00,,,0.00,VWS V14.01,2013-03-07 17:21:00,
2013-03-07 12:26:00,60.7,39.3,30.16,NE,38,5.0,8.0,45,0.00,,,0.00,VWS V14.01,2013-03-07 17:26:00,
2013-03-07 12:31:00,60.8,39.3,30.16,NE,51,3.0,8.0,45,0.00,,,0.00,VWS V14.01,2013-03-07 17:31:00,
2013-03-07 12:36:00,61.7,39.6,30.16,North,9,4.0,10.0,44,0.00,,,0.00,VWS V14.01,2013-03-07 17:36:00,
2013-03-07 12:41:00,61.9,38.6,30.16,NE,44,5.0,10.0,42,0.00,,,0.00,VWS V14.01,2013-03-07 17:41:00,
2013-03-07 12:46:00,62.2,41.2,30.15,NNE,32,3.0,5.0,46,0.00,,,0.00,VWS V14.01,2013-03-07 17:46:00,
2013-03-07 12:51:00,61.4,38.1,30.16,North,355,0.0,11.0,42,0.00,,,0.00,VWS V14.01,2013-03-07 17:51:00,
2013-03-07 12:56:00,61.6,38.9,30.16,NNE,16,5.0,8.0,43,0.00,,,0.00,VWS V14.01,2013-03-07 17:56:00,
2013-03-07 13:01:00,62.4,40.8,30.16,WNW,298,5.0,8.0,45,0.00,,,0.00,VWS V14.01,2013-03-07 18:01:00,
2013-03-07 13:06:00,63.6,38.2,30.16,NE,49,2.0,8.0,39,0.00,,,0.00,VWS V14.01,2013-03-07 18:06:00,
2013-03-07 13:11:00,62.6,37.3,30.16,NE,55,5.0,8.0,39,0.00,,,0.00,VWS V14.01,2013-03-07 18:11:00,
2013-03-07 13:16:00,62.7,37.4,30.15,ESE,107,0.0,5.0,39,0.00,,,0.00,VWS V14.01,2013-03-07 18:16:00,
2013-03-07 13:21:00,63.0,40.2,30.15,North,350,9.0,10.0,43,0.00,,,0.00,VWS V14.01,2013-03-07 18:21:00,
2013-03-07 13:26:00,62.8,38.1,30.15,NNW,333,4.0,9.0,40,0.00,,,0.00,VWS V14.01,2013-03-07 18:26:00,
2013-03-07 13:31:00,62.6,38.6,30.14,WSW,254,2.0,9.0,41,0.00,,,0.00,VWS V14.01,2013-03-07 18:31:00,
2013-03-07 13:36:00,63.5,39.4,30.13,East,84,8.0,12.0,41,0.00,,,0.00,VWS V14.01,2013-03-07 18:36:00,
2013-03-07 13:41:00,63.8,38.4,30.14,East,82,3.0,12.0,39,0.00,,,0.00,VWS V14.01,2013-03-07 18:41:00,
2013-03-07 13:46:00,64.0,38.6,30.13,NE,55,4.0,11.0,39,0.00,,,0.00,VWS V14.01,2013-03-07 18:46:00,
2013-03-07 13:51:00,64.0,38.6,30.13,ESE,105,4.0,11.0,39,0.00,,,0.00,VWS V14.01,2013-03-07 18:51:00,
2013-03-07 13:56:00,64.8,39.3,30.13,WNW,298,6.0,6.0,39,0.00,,,0.00,VWS V14.01,2013-03-07 18:56:00,
2013-03-07 14:01:00,64.7,39.8,30.13,West,263,2.0,7.0,40,0.00,,,0.00,VWS V14.01,2013-03-07 19:01:00,
2013-03-07 14:06:00,65.0,40.8,30.13,NW,319,5.0,6.0,41,0.00,,,0.00,VWS V14.01,2013-03-07 19:06:00,
2013-03-07 14:11:00,65.3,39.7,30.13,NNW,341,4.0,6.0,39,0.00,,,0.00,VWS V14.01,2013-03-07 19:11:00,
2013-03-07 14:16:00,65.0,38.1,30.13,NW,311,5.0,9.0,37,0.00,,,0.00,VWS V14.01,2013-03-07 19:16:00,
2013-03-07 14:21:00,65.4,39.2,30.13,WNW,288,2.0,9.0,38,0.00,,,0.00,VWS V14.01,2013-03-07 19:21:00,
2013-03-07 14:26:00,66.0,38.3,30.12,NNW,345,3.0,7.0,36,0.00,,,0.00,VWS V14.01,2013-03-07 19:26:00,
2013-03-07 14:32:00,66.8,38.3,30.12,NNW,344,2.0,7.0,35,0.00,,,0.00,VWS V14.01,2013-03-07 19:32:00,
2013-03-07 14:37:00,67.5,39.6,30.12,NW,322,3.0,7.0,36,0.00,,,0.00,VWS V14.01,2013-03-07 19:37:00,
2013-03-07 14:42:00,67.5,38.9,30.11,NE,37,2.0,9.0,35,0.00,,,0.00,VWS V14.01,2013-03-07 19:42:00,
2013-03-07 14:47:00,67.1,37.8,30.11,NE,48,8.0,8.0,34,0.00,,,0.00,VWS V14.01,2013-03-07 19:47:00,
2013-03-07 14:52:00,67.4,38.1,30.11,North,360,5.0,10.0,34,0.00,,,0.00,VWS V14.01,2013-03-07 19:52:00,
2013-03-07 14:57:00,67.7,39.8,30.11,NNW,339,1.0,6.0,36,0.00,,,0.00,VWS V14.01,2013-03-07 19:57:00,
2013-03-07 15:02:00,68.3,38.1,30.11,NW,312,5.0,10.0,33,0.00,,,0.00,VWS V14.01,2013-03-07 20:02:00,
2013-03-07 15:07:00,67.8,38.4,30.11,WNW,294,2.0,9.0,34,0.00,,,0.00,VWS V14.01,2013-03-07 20:07:00,
2013-03-07 15:12:00,67.6,39.7,30.10,SW,229,4.0,9.0,36,0.00,,,0.00,VWS V14.01,2013-03-07 20:12:00,
2013-03-07 15:17:00,67.8,38.4,30.10,WSW,246,0.0,5.0,34,0.00,,,0.00,VWS V14.01,2013-03-07 20:17:00,
2013-03-07 15:22:00,68.8,38.5,30.10,West,271,9.0,13.0,33,0.00,,,0.00,VWS V14.01,2013-03-07 20:22:00,
2013-03-07 15:27:00,69.4,39.1,30.11,NNE,17,4.0,8.0,33,0.00,,,0.00,VWS V14.01,2013-03-07 20:27:00,
2013-03-07 15:32:00,69.0,38.7,30.11,ENE,59,1.0,8.0,33,0.00,,,0.00,VWS V14.01,2013-03-07 20:32:00,
2013-03-07 15:37:00,69.0,38.7,30.10,NNW,339,5.0,7.0,33,0.00,,,0.00,VWS V14.01,2013-03-07 20:37:00,
2013-03-07 15:42:00,68.4,38.2,30.11,NNE,32,8.0,9.0,33,0.00,,,0.00,VWS V14.01,2013-03-07 20:42:00,
2013-03-07 15:47:00,67.8,37.7,30.11,East,92,7.0,8.0,33,0.00,,,0.00,VWS V14.01,2013-03-07 20:47:00,
2013-03-07 15:52:00,67.5,41.0,30.11,NE,40,4.0,8.0,38,0.00,,,0.00,VWS V14.01,2013-03-07 20:52:00,
2013-03-07 15:57:00,68.2,37.2,30.11,NE,41,0.0,2.0,32,0.00,,,0.00,VWS V14.01,2013-03-07 20:57:00,
2013-03-07 16:02:00,69.1,38.8,30.11,North,5,2.0,7.0,33,0.00,,,0.00,VWS V14.01,2013-03-07 21:02:00,
2013-03-07 16:07:00,68.7,37.7,30.11,NW,308,3.0,5.0,32,0.00,,,0.00,VWS V14.01,2013-03-07 21:07:00,
2013-03-07 16:12:00,68.9,38.6,30.11,NW,313,0.0,6.0,33,0.00,,,0.00,VWS V14.01,2013-03-07 21:12:00,
2013-03-07 16:17:00,69.6,37.7,30.11,NW,315,0.0,4.0,31,0.00,,,0.00,VWS V14.01,2013-03-07 21:17:00,
2013-03-07 16:22:00,68.8,37.8,30.11,NW,304,2.0,4.0,32,0.00,,,0.00,VWS V14.01,2013-03-07 21:22:00,
2013-03-07 16:27:00,69.5,37.6,30.11,NW,313,0.0,6.0,31,0.00,,,0.00,VWS V14.01,2013-03-07 21:27:00,
2013-03-07 16:32:00,69.4,35.8,30.11,WNW,296,7.0,10.0,29,0.00,,,0.00,VWS V14.01,2013-03-07 21:32:00,
2013-03-07 16:37:00,68.7,36.9,30.11,NNW,330,8.0,9.0,31,0.00,,,0.00,VWS V14.01,2013-03-07 21:37:00,
2013-03-07 16:42:00,68.6,37.6,30.11,NW,311,7.0,10.0,32,0.00,,,0.00,VWS V14.01,2013-03-07 21:42:00,
2013-03-07 16:47:00,68.4,36.6,30.11,NNW,346,5.0,8.0,31,0.00,,,0.00,VWS V14.01,2013-03-07 21:47:00,
2013-03-07 16:52:00,69.2,38.1,30.11,NNW,329,2.0,8.0,32,0.00,,,0.00,VWS V14.01,2013-03-07 21:52:00,
2013-03-07 16:57:00,68.8,37.8,30.10,NNW,329,0.0,3.0,32,0.00,,,0.00,VWS V14.01,2013-03-07 21:57:00,
2013-03-07 17:02:00,68.6,36.8,30.10,NNW,329,0.0,3.0,31,0.00,,,0.00,VWS V14.01,2013-03-07 22:02:00,
2013-03-07 17:07:00,69.4,38.3,30.10,NNE,24,4.0,5.0,32,0.00,,,0.00,VWS V14.01,2013-03-07 22:07:00,
2013-03-07 17:12:00,69.3,38.2,30.10,NNW,327,3.0,8.0,32,0.00,,,0.00,VWS V14.01,2013-03-07 22:12:00,
2013-03-07 17:17:00,69.3,38.2,30.10,NW,321,2.0,4.0,32,0.00,,,0.00,VWS V14.01,2013-03-07 22:17:00,
2013-03-07 17:22:00,68.9,38.6,30.10,NNE,32,1.0,5.0,33,0.00,,,0.00,VWS V14.01,2013-03-07 22:22:00,
2013-03-07 17:27:00,68.5,37.5,30.11,NNE,32,4.0,4.0,32,0.00,,,0.00,VWS V14.01,2013-03-07 22:27:00,
2013-03-07 17:32:00,67.8,38.4,30.10,NE,45,5.0,8.0,34,0.00,,,0.00,VWS V14.01,2013-03-07 22:32:00,
2013-03-07 17:37:00,67.7,38.3,30.10,NNE,21,3.0,5.0,34,0.00,,,0.00,VWS V14.01,2013-03-07 22:37:00,
2013-03-07 17:42:00,67.7,37.6,30.10,NNE,20,3.0,5.0,33,0.00,,,0.00,VWS V14.01,2013-03-07 22:42:00,
2013-03-07 17:47:00,67.1,37.1,30.10,NE,35,2.0,5.0,33,0.00,,,0.00,VWS V14.01,2013-03-07 22:47:00,
2013-03-07 17:52:00,66.9,37.7,30.10,NE,35,1.0,5.0,34,0.00,,,0.00,VWS V14.01,2013-03-07 22:52:00,
2013-03-07 17:57:00,66.6,38.1,30.11,NE,35,2.0,4.0,35,0.00,,,0.00,VWS V14.01,2013-03-07 22:57:00,
2013-03-07 18:02:00,66.3,37.8,30.11,NE,35,0.0,4.0,35,0.00,,,0.00,VWS V14.01,2013-03-07 23:02:00,
2013-03-07 18:07:00,66.1,37.7,30.11,NE,35,0.0,2.0,35,0.00,,,0.00,VWS V14.01,2013-03-07 23:07:00,
2013-03-07 18:12:00,65.7,38.0,30.11,NE,35,0.0,3.0,36,0.00,,,0.00,VWS V14.01,2013-03-07 23:12:00,
2013-03-07 18:17:00,65.3,37.7,30.11,NE,35,0.0,0.0,36,0.00,,,0.00,VWS V14.01,2013-03-07 23:17:00,
2013-03-07 18:22:00,64.6,38.4,30.11,NE,35,0.0,0.0,38,0.00,,,0.00,VWS V14.01,2013-03-07 23:22:00,
2013-03-07 18:27:00,63.8,39.0,30.11,NE,35,0.0,0.0,40,0.00,,,0.00,VWS V14.01,2013-03-07 23:27:00,
2013-03-07 18:32:00,62.7,39.9,30.11,NE,35,0.0,0.0,43,0.00,,,0.00,VWS V14.01,2013-03-07 23:32:00,
2013-03-07 18:37:00,61.5,40.0,30.11,NE,35,0.0,0.0,45,0.00,,,0.00,VWS V14.01,2013-03-07 23:37:00,
2013-03-07 18:42:00,60.2,40.5,30.12,NE,35,0.0,0.0,48,0.00,,,0.00,VWS V14.01,2013-03-07 23:42:00,
2013-03-07 18:47:00,59.3,40.2,30.12,NE,35,0.0,0.0,49,0.00,,,0.00,VWS V14.01,2013-03-07 23:47:00,
2013-03-07 18:52:00,58.5,39.9,30.12,NE,35,0.0,0.0,50,0.00,,,0.00,VWS V14.01,2013-03-07 23:52:00,
2013-03-07 18:57:00,57.7,40.7,30.12,NE,35,0.0,0.0,53,0.00,,,0.00,VWS V14.01,2013-03-07 23:57:00,
2013-03-07 19:02:00,57.1,40.6,30.13,NE,35,0.0,0.0,54,0.00,,,0.00,VWS V14.01,2013-03-08 00:02:00,
2013-03-07 19:07:00,56.2,41.6,30.13,NE,35,0.0,0.0,58,0.00,,,0.00,VWS V14.01,2013-03-08 00:07:00,
2013-03-07 19:12:00,55.5,41.9,30.13,NE,35,0.0,0.0,60,0.00,,,0.00,VWS V14.01,2013-03-08 00:12:00,
2013-03-07 19:17:00,55.0,41.8,30.14,NE,35,0.0,0.0,61,0.00,,,0.00,VWS V14.01,2013-03-08 00:17:00,
2013-03-07 19:22:00,54.6,41.9,30.14,NE,35,0.0,0.0,62,0.00,,,0.00,VWS V14.01,2013-03-08 00:22:00,
2013-03-07 19:27:00,54.2,41.5,30.13,NE,35,0.0,0.0,62,0.00,,,0.00,VWS V14.01,2013-03-08 00:27:00,
2013-03-07 19:32:00,53.7,41.8,30.14,NE,35,0.0,0.0,64,0.00,,,0.00,VWS V14.01,2013-03-08 00:32:00,
2013-03-07 19:37:00,53.1,42.1,30.14,WSW,257,7.0,7.0,66,0.00,,,0.00,VWS V14.01,2013-03-08 00:37:00,
2013-03-07 19:42:00,52.8,41.4,30.14,WNW,291,7.0,8.0,65,0.00,,,0.00,VWS V14.01,2013-03-08 00:42:00,
2013-03-07 19:47:00,53.6,41.3,30.15,West,277,1.0,6.0,63,0.00,,,0.00,VWS V14.01,2013-03-08 00:47:00,
2013-03-07 19:52:00,54.0,41.3,30.15,West,277,3.0,6.0,62,0.00,,,0.00,VWS V14.01,2013-03-08 00:52:00,
2013-03-07 19:57:00,54.4,41.7,30.15,West,277,4.0,5.0,62,0.00,,,0.00,VWS V14.01,2013-03-08 00:57:00,
2013-03-07 20:02:00,54.6,41.4,30.15,West,277,3.0,5.0,61,0.00,,,0.00,VWS V14.01,2013-03-08 01:02:00,
2013-03-07 20:07:00,54.5,40.9,30.16,West,277,1.0,4.0,60,0.00,,,0.00,VWS V14.01,2013-03-08 01:07:00,
2013-03-07 20:12:00,54.4,40.8,30.16,West,277,3.0,5.0,60,0.00,,,0.00,VWS V14.01,2013-03-08 01:12:00,
2013-03-07 20:17:00,54.1,41.0,30.17,West,277,3.0,4.0,61,0.00,,,0.00,VWS V14.01,2013-03-08 01:17:00,
2013-03-07 20:22:00,53.8,41.1,30.16,WNW,288,4.0,5.0,62,0.00,,,0.00,VWS V14.01,2013-03-08 01:22:00,
2013-03-07 20:27:00,53.5,40.4,30.16,WNW,290,3.0,6.0,61,0.00,,,0.00,VWS V14.01,2013-03-08 01:27:00,
2013-03-07 20:32:00,53.7,40.6,30.17,WNW,290,2.0,6.0,61,0.00,,,0.00,VWS V14.01,2013-03-08 01:32:00,
2013-03-07 20:37:00,53.6,40.1,30.16,NW,325,2.0,6.0,60,0.00,,,0.00,VWS V14.01,2013-03-08 01:37:00,
2013-03-07 20:42:00,53.4,39.9,30.17,NW,325,2.0,6.0,60,0.00,,,0.00,VWS V14.01,2013-03-08 01:42:00,
2013-03-07 20:47:00,53.1,40.0,30.17,NW,325,3.0,5.0,61,0.00,,,0.00,VWS V14.01,2013-03-08 01:47:00,
2013-03-07 20:52:00,52.8,40.2,30.17,WNW,302,3.0,7.0,62,0.00,,,0.00,VWS V14.01,2013-03-08 01:52:00,
2013-03-07 20:57:00,52.6,40.0,30.17,NW,304,2.0,5.0,62,0.00,,,0.00,VWS V14.01,2013-03-08 01:57:00,
2013-03-07 21:02:00,52.4,40.2,30.17,WNW,292,6.0,9.0,63,0.00,,,0.00,VWS V14.01,2013-03-08 02:02:00,
2013-03-07 21:07:00,52.4,40.2,30.17,WNW,294,3.0,7.0,63,0.00,,,0.00,VWS V14.01,2013-03-08 02:07:00,
2013-03-07 21:12:00,52.3,40.5,30.17,NW,305,3.0,7.0,64,0.00,,,0.00,VWS V14.01,2013-03-08 02:12:00,
2013-03-07 21:17:00,51.9,40.5,30.17,NW,305,4.0,5.0,65,0.00,,,0.00,VWS V14.01,2013-03-08 02:17:00,
2013-03-07 21:22:00,51.7,40.3,30.17,NW,310,2.0,7.0,65,0.00,,,0.00,VWS V14.01,2013-03-08 02:22:00,
2013-03-07 21:27:00,51.4,40.4,30.17,WNW,302,3.0,6.0,66,0.00,,,0.00,VWS V14.01,2013-03-08 02:27:00,
2013-03-07 21:32:00,51.2,40.6,30.18,NNW,328,2.0,6.0,67,0.00,,,0.00,VWS V14.01,2013-03-08 02:32:00,
2013-03-07 21:37:00,50.9,40.3,30.18,NNW,327,4.0,5.0,67,0.00,,,0.00,VWS V14.01,2013-03-08 02:37:00,
2013-03-07 21:42:00,50.6,40.4,30.18,NNW,327,4.0,5.0,68,0.00,,,0.00,VWS V14.01,2013-03-08 02:42:00,
2013-03-07 21:47:00,50.3,40.5,30.17,NNW,327,0.0,2.0,69,0.00,,,0.00,VWS V14.01,2013-03-08 02:47:00,
2013-03-07 21:52:00,50.1,40.7,30.17,NNW,327,3.0,5.0,70,0.00,,,0.00,VWS V14.01,2013-03-08 02:52:00,
2013-03-07 21:57:00,49.9,40.9,30.18,NNW,327,4.0,6.0,71,0.00,,,0.00,VWS V14.01,2013-03-08 02:57:00,
2013-03-07 22:02:00,49.8,40.8,30.18,WNW,297,3.0,8.0,71,0.00,,,0.00,VWS V14.01,2013-03-08 03:02:00,
2013-03-07 22:07:00,49.7,41.0,30.18,WNW,297,0.0,4.0,72,0.00,,,0.00,VWS V14.01,2013-03-08 03:07:00,
2013-03-07 22:12:00,49.5,40.9,30.18,WNW,297,0.0,4.0,72,0.00,,,0.00,VWS V14.01,2013-03-08 03:12:00,
2013-03-07 22:18:00,49.2,40.9,30.17,WNW,297,2.0,4.0,73,0.00,,,0.00,VWS V14.01,2013-03-08 03:18:00,
2013-03-07 22:23:00,49.0,41.1,30.17,WNW,297,2.0,4.0,74,0.00,,,0.00,VWS V14.01,2013-03-08 03:23:00,
2013-03-07 22:28:00,48.7,40.8,30.17,WNW,297,1.0,5.0,74,0.00,,,0.00,VWS V14.01,2013-03-08 03:28:00,
2013-03-07 22:33:00,48.5,41.0,30.17,WNW,297,2.0,5.0,75,0.00,,,0.00,VWS V14.01,2013-03-08 03:33:00,
2013-03-07 22:38:00,48.3,40.8,30.17,WNW,297,0.0,3.0,75,0.00,,,0.00,VWS V14.01,2013-03-08 03:38:00,
2013-03-07 22:43:00,47.9,41.0,30.18,NE,55,5.0,5.0,77,0.00,,,0.00,VWS V14.01,2013-03-08 03:43:00,
2013-03-07 22:48:00,47.7,40.8,30.18,NE,55,0.0,3.0,77,0.00,,,0.00,VWS V14.01,2013-03-08 03:48:00,
2013-03-07 22:53:00,47.3,40.5,30.19,NE,55,0.0,3.0,77,0.00,,,0.00,VWS V14.01,2013-03-08 03:53:00,
2013-03-07 22:58:00,47.0,40.5,30.19,NE,55,1.0,2.0,78,0.00,,,0.00,VWS V14.01,2013-03-08 03:58:00,
2013-03-07 23:03:00,46.7,40.2,30.18,NE,55,0.0,2.0,78,0.00,,,0.00,VWS V14.01,2013-03-08 04:03:00,
2013-03-07 23:08:00,46.4,40.2,30.19,NE,55,0.0,2.0,79,0.00,,,0.00,VWS V14.01,2013-03-08 04:08:00,
2013-03-07 23:12:00,46.1,40.3,30.19,NE,55,3.0,3.0,80,0.00,,,0.00,VWS V14.01,2013-03-08 04:12:00,
2013-03-07 23:17:00,45.9,40.4,30.19,NE,55,0.0,2.0,81,0.00,,,0.00,VWS V14.01,2013-03-08 04:17:00,
2013-03-07 23:22:00,45.6,40.1,30.19,NE,55,0.0,2.0,81,0.00,,,0.00,VWS V14.01,2013-03-08 04:22:00,
2013-03-07 23:27:00,45.4,40.2,30.19,NE,55,0.0,0.0,82,0.00,,,0.00,VWS V14.01,2013-03-08 04:27:00,
2013-03-07 23:32:00,45.1,39.6,30.19,NE,55,0.0,0.0,81,0.00,,,0.00,VWS V14.01,2013-03-08 04:32:00,
2013-03-07 23:37:00,44.8,39.7,30.19,NE,55,0.0,0.0,82,0.00,,,0.00,VWS V14.01,2013-03-08 04:37:00,
2013-03-07 23:43:00,44.5,39.7,30.19,NE,55,0.0,0.0,83,0.00,,,0.00,VWS V14.01,2013-03-08 04:43:00,
2013-03-07 23:48:00,44.0,39.5,30.18,NE,55,0.0,0.0,84,0.00,,,0.00,VWS V14.01,2013-03-08 04:48:00,
2013-03-07 23:52:00,43.7,39.5,30.18,NE,55,0.0,0.0,85,0.00,,,0.00,VWS V14.01,2013-03-08 04:52:00,
2013-03-07 23:57:00,43.5,39.3,30.18,NE,55,0.0,0.0,85,0.00,,,0.00,VWS V14.01,2013-03-08 04:57:00,